|
|
|
|
|
Asteroid Itokawa
(
1 2 3
)
(Preview)
|
Art gallery
|
20
|
16474
|
|
|
[url=http://www.activeboard.com/forum.spark?forumID=58381&subForumID=150688&action=viewTopic&commentID=3191136]asteroid
|
|
|
|
|
|
Asteroid collision 470 million years ago
(
1 2
)
(Preview)
|
Meteorite News
|
10
|
19820
|
|
|
An asteroid collision showered the earth with meteorites for millions of years. An enormous collision between two asteroids created a meteorite shower that rained down on earth for millions of years. Meteorites of up to 1.5 kilometres in size impacted with the earth. German researchers have no...
|
|
|
|
|
|
Asteriod 66391 1999KW4
(Preview)
|
Meteorite News
|
5
|
9265
|
|
|
The first detailed images of a binary asteroid system reveal a bizarre world where the highest points on the surface are actually the lowest, and the two asteroids dance in each other's gravitational pull.
A binary asteroid is a system where two asteroids orbit around one another, like a mini Ea...
|
|
|
|
|
|
Detecting Asteroid Impacts
(Preview)
|
Meteorite News
|
1
|
4611
|
|
|
Can we detect asteroid impacts with rocky extrasolar planets?
Sixty-five million years ago a chunk of rock and ice perhaps 15 kilometres across collided with the Earth and wiped out many creatures, including the dinosaurs. This impact, known as the Chicxulub impact, must have created a spectac...
|
|
|
|
|
|
NEAR, 433 Eros
(
1 2
)
(Preview)
|
Astronomy News
|
17
|
20778
|
|
|
On 23 December 1998 the NEAR spacecraft flew within 3824 km of the asteroid 433 Eros (33x33x16 km diameter[url=http://cps.earth.northwestern.edu/near.html]ht...
|
|
|
|
|
|
Asteroids 9512 and 9517
(Preview)
|
Astronomy News
|
0
|
2603
|
|
|
The Purple Mountain Observatory under the Chinese Academy of Sciences announced it has named two asteroids after Fei Junlong and Nie Haisheng, two astronauts from China's second manned space mission in 2005. According to Yang Jiexing, secretary of the asteroids naming committee in the obs...
|
|
|
|
|
|
Asteroid 2003 YN107
(Preview)
|
Solar System
|
4
|
9536
|
|
|
Earth Coorbital Asteroid 2003 YN107 is making a close flyby today. The asteroid's corkscrew path is lopsided and on June 10th it will dip within 3.4 million km of the Earth, slightly closer than usual. Earth's gravity...
|
|
|
|
|
|
2002 NY40
(Preview)
|
Solar System
|
0
|
2567
|
|
|
Title: Characterisation of the near-Earth Asteroid 2002 NY40 Authors: Lewis C. Roberts, Jr., Doyle T. Hall, John V. Lambert, John L. Africano2, Keith T. Knox, Jacob K. Barros, Kris M. Hamada, Dennis Liang, Paul F. Sydney In August 2002, the near-Earth asteroid 2002 NY40, made its closest approach...
|
|
|
|
|
|
Asteroid 2008 TM9
(Preview)
|
Solar System
|
1
|
2263
|
|
|
A magnitude 20 asteroid, 2008 TM9, has been discovered by Irish amateur astronomer Dave McDonald, from his observatory in Celbridge in Co Kildare . The last such discovery of an asteroid from Ireland was the discovery of (9) Metis, by Andrew Graham at Markree Observatory, on 25 April 1848. Brief...
|
|
|
|
|
|
Asteroid 2000 SG344
(Preview)
|
Astronomy News
|
1
|
2628
|
|
|
Nasa plans landing on 40m-wide asteroid travelling at 28,000mph[url=http://en.wikipedia.org/wiki/2000_SG%E2%82%83%E2%82%84%E2%82%84]2...
|
|
|
|
|
|
Asteroid 2008 UB95
(Preview)
|
Solar System
|
3
|
2728
|
|
|
Orbital elements: 2008 UB95 Earth MOID = 0.0006 AU Epoch 2008 Nov. 30.0 TT = JDT 2454800.5 MPC M 120.55416 (2000.0) P Q n 0.99909147 Peri. 253.80032 +0.10118076 +0.99464395 a 0.9909823 Node 22.03973 -0.88993183 +0.09997585 e 0.2673998 Incl. 3.22576 -0.44472890 +0.02623426 P 0.99 H 24.5 G 0.15 U 9 M...
|
|
|
|
|
|
Asteroid 102 Miriam
(Preview)
|
Solar System
|
0
|
2539
|
|
|
Occultation by asteroid 102 Miriam on 31 October 2008 Click to Play | View Details 102 Miriam is a quite large, very dark main belt asteroid. It was discovered by C. H. F. Peters on August 22, 1868 and named after Miriam, the sister of Moses in the Old Testament. [url=http://en.wikipedia.org/wiki/10...
|
|
|
|
|
|
Asteroid Kankelborg
(Preview)
|
Astronomy News
|
0
|
2566
|
|
|
Charles Kankelborg, a "well-rounded astrophysicist" at Montana State University, now has an asteroid named after him. The asteroid, 269 million miles away from the sun, was detected from an observatory in the middle of a steamy Texas swamp where alligators sometimes loiter at the bas...
|
|
|
|
|
|
2007 VN84
(Preview)
|
Astronomy News
|
2
|
3690
|
|
|
A 20 meter sized asteroid, 2007 VN84, discovered by Richard Kowalski and the Catalina Sky Survey is predicted to make a extremely close flyby of the earth on Nov 13.844 UT The object may reach around magnitude 9.7 and be favourably positioned. The minimum distance from the geocenter will only be 0...
|
|
|
|
|
|
2007 VJ189
(Preview)
|
Astronomy News
|
0
|
2400
|
|
|
The small asteroid 2007 VJ189 was discovered at 09:08 UT on 14th November. by the Mt. Lemmon Survey. K07VI9J V=22.4 H=25.7 ~25m /span> K07VI9J C2007 11 14.98506 03 38 37.86 +07 57 52.8 K07VI9J C2007 11 15.24381 03 36 36.28 +08 56 06.4 K07VI9J C2007 11 15.24925 03 36 33.51 +08 57 19.3 K07VI9J C2007 11 15.25...
|
|
|
|
|
|
Asteroid 2008 AZ28
(Preview)
|
Astronomy News
|
1
|
2383
|
|
|
Three Racine sophomore students were notified on Monday that a celestial body they discovered during a science project had been verified as an asteroid. The students at Racine's Prairie School will be able to name the asteroid, temporarily identified as "2008 AZ28," in about four year...
|
|
|
|
|
|
Asteroid 165347 Philplait
(Preview)
|
Astronomy News
|
1
|
2611
|
|
|
The "Bad Astronomer," as Phil Plait is known among fellow cosmos junkies, is the new space kid in town. The well-known astro-educator, former NASA scientist, faithful star blogger and Boulder resident is celebrating his latest honour -- an asteroid named just for him. The asteroid for...
|
|
|
|
|
|
Asteroid 6137
(Preview)
|
Astronomy News
|
1
|
2927
|
|
|
An amateur astronomer called John is celebrating the rare honour of having an asteroid named after him. Asteroid number 6137 is now officially called Johnfletcher, after the retired postman from Tuffley, Gloucester. [url=htt...
|
|
|
|
|
|
Asteroid 2000 CO101
(Preview)
|
Solar System
|
3
|
2846
|
|
|
The Near-Earth Asteroid 2000 CO101 is to make a close flyby of the Earth moon system on the 17th September 2009. The 0.5 - 1.0 km wide Apollo asteroid was discovered by LINEAR - Lincoln Laboratory ETS, New Mexico, on the 8th February 2000. Minimum distance: 0.04582 AU. Date: 2009-09-17 21:36: 00 UT Max...
|
|
|
|
|
|
Asteroid 2008 UA202
(Preview)
|
Solar System
|
0
|
2330
|
|
|
2008 UA202 Earth Impact Risk Summary Torino Scale (maximum) Palermo Scale (maximum) -5.96 Palermo Scale (cumulative) -5.05 Impact Probability (cumulative) 8.6e-04 Number of Potential Impacts 209 Vimpact 11.29 km/s Vinfinity 1.66 km/s H 29.3 Diameter 0.005 km Mass 1.4e+05 kg Energy 2.1e-03 M...
|
|
|
|
|
|
Asteroid 2005 TM173
(Preview)
|
Solar System
|
4
|
3197
|
|
|
2005 TM173 Earth Impact Risk Summary Torino Scale (maximum) Palermo Scale (maximum) -6.37 Palermo Scale (cumulative) -5.43 Impact Probability (cumulative) 9.8e-07 Number of Potential Impacts 168 Vimpact 14.22 km/s Vinfinity 8.78 km/s H 24.1 Diameter 0.051 km Mass 1.8e+08 kg Energy 4.6e+00 M...
|
|
|
|
|
|
Asteroid 2008 US4
(Preview)
|
Solar System
|
0
|
2361
|
|
|
Asteroid 2008 US4 Orbital elements: 2008 US4 Earth MOID = 0.0766 AU Epoch 2008 Nov. 30.0 TT = JDT 2454800.5 MPC M 354.19644 (2000.0) P Q n 0.27947055 Peri. 72.60840 -0.23005048 -0.96590764 a 2.3169252 Node 31.46183 +0.78401480 -0.25623298 e 0.6313325 Incl. 13.15003 +0.57653930 -0.03697418 P 3.5...
|
|
|
|
|
|
Asteroid 2008 UB7
(Preview)
|
Solar System
|
1
|
2400
|
|
|
Asteroid 2008 UB7 Orbital elements: 2008 UB7 Earth MOID = 0.0009 AU Epoch 2008 Nov. 30.0 TT = JDT 2454800.5 MPC M 340.78255 (2000.0) P Q n 0.72056938 Peri. 287.49212 -0.84015731 -0.54187957 a 1.2322122 Node 219.70426 +0.50995097 -0.77523704 e 0.5914715 Incl. 2.01038 +0.18462314 -0.32461370 P 1....
|
|
|
|
|
|
Asteroid (56) Melete
(Preview)
|
Events
|
3
|
2656
|
|
|
The magnitude 11.8 main belt asteroid (56) Melete will occult the magnitude 10.9 star on TYC 0633-01047-1 at around 22:36 UT, 24th September, 2008. The event will be viewable from western Europe and the UK. The High proper-motion star TYC 633-1047-1 lies in the constellation Aries, near to th...
|
|
|
|
|
|
Asteroid 2008 EV5
(Preview)
|
Solar System
|
4
|
6299
|
|
|
Asteroid 2008 EV5 was discovered by the Mt. Lemmon Survey on the 4th March 2008. The (H=19.8) 310 - 700 metre wide asteroid will flyby the Earth-Moon system on the 23rd December, 2008, by 8.4 lunar distances (0.0216 AU). The maximum predicted brightness is magnitude 13. Orbital and Physical Charact...
|
|
|
|
|
|
Asteroid 3 Juno
(
1 2 3 4
)
(Preview)
|
Events
|
33
|
14171
|
|
|
Asteroid 3 Juno is at Opposition on the 13th June, 2008. Expand (9kb, 1008 x 712) Magnitude: 10.1 Phase: 6 ° Distance: 2.2827 AU Solar Distance: 3.2610 AU pre>Date TT R. A. (2000) Decl. Delta r Elong. Phase V 2008...
|
|
|
|
|
|
Potentially Hazardous Asteroids
(
1 2 3 4
)
(Preview)
|
Asteroids
|
32
|
11206
|
|
|
List Of The Potentially Hazardous Asteroids (PHAs) Read more
|
|
|
|
|
|
Asteroid 2004 FM17
(Preview)
|
Solar System
|
1
|
4701
|
|
|
The 390 - 870 metre wide asteroid 2009 CR4 is to make a close pass (56.1 Lunar Distances, 0.1440 AU), travelling at 9.68 km/s, to the Earth-Moon system on the 9th May, 2009. See more The Lunar Distance (LD), the distance bet...
|
|
|
|
|
|
Asteroid 14 Irene
(
1 2
)
(Preview)
|
Events
|
10
|
6074
|
|
|
The magnitude 9 asteroid, 14 Irene, is predicted to pass only 0.2° north of magnitude 6 star 92 Virginis (HD 121607). The event this evening is observable from Europe and the Americas. Asteroid 14 Irene was at opposition on the 21st April, 2009. Position(2000): RA = 13h56m27.90s, Dec = +01°03'02.0...
|
|
|
|
|
|
Asteroid (68216) 2001 CV26
(Preview)
|
Solar System
|
0
|
2391
|
|
|
